IU1FIL-23 Weather Reports


time (UTC)temp
C
wind
direction
speed
KPH
gust
KPH
rain 1hr
cm
rain 24hr
cm
rain mn
cm
humidity
%
barometer
mb
20260503210252 8 0.0 0.0 0.00 0.00 0.00 81 1020.5
20260503205248 8 0.0 0.0 0.00 0.00 0.00 78 1020.4
20260503204244 8 0.0 0.0 0.00 0.00 0.00 77 1020.4
20260503203240 8 0.0 0.0 0.00 0.00 0.00 76 1020.5
20260503202236 8 0.0 0.0 0.00 0.00 0.00 78 1020.6
20260503201232 8 0.0 0.0 0.00 0.00 0.00 73 1020.5
20260503200228 8 0.0 0.0 0.00 0.00 0.00 73 1020.3
20260503195223 8 0.0 0.0 0.00 0.00 0.00 71 1020.3
20260503194219 8 0.0 0.0 0.00 0.00 0.00 69 1020.2
20260503193215 8 0.0 0.0 0.00 0.00 0.00 67 1020.1
20260503192211 8 0.0 0.0 0.00 0.00 0.00 65 1020.0
20260503191154 8 0.0 0.0 0.00 0.00 0.00 62 1020.0
20260503190150 8 0.0 0.0 0.00 0.00 0.00 62 1019.9
20260503185146 8 0.0 0.0 0.00 0.00 0.00 60 1019.9
20260503184141 9 0.0 0.0 0.00 0.00 0.00 59 1019.9
20260503183137 9 0.0 0.0 0.00 0.00 0.00 58 1019.9
20260503182133 10 0.0 0.0 0.00 0.00 0.00 56 1019.8
20260503181129 10 0.0 0.0 0.00 0.00 0.00 55 1019.9
20260503180125 10 0.0 0.0 0.00 0.00 0.00 54 1019.8
20260503175121 10 0.0 0.0 0.00 0.00 0.00 52 1019.8
20260503174117 11 0.0 0.0 0.00 0.00 0.00 51 1019.9
20260503173113 11 0.0 0.0 0.00 0.00 0.00 50 1019.9
20260503172108 12 0.0 0.0 0.00 0.00 0.00 49 1020.0
20260503171104 12 0.0 0.0 0.00 0.00 0.00 49 1020.1
20260503151005 20 0.0 0.0 0.00 0.00 0.00 40 1020.4
20260503130851 21 0.0 0.0 0.00 0.00 0.00 37 1021.6
20260503110735 21 0.0 0.0 0.00 0.00 0.00 35 1022.2
20260503081531 16 0.0 0.0 0.00 0.00 0.00 45 1022.2
20260503080526 15 0.0 0.0 0.00 0.00 0.00 46 1022.1
20260503072508 15 0.0 0.0 0.00 0.00 0.00 44 1022.2
20260503071504 14 0.0 0.0 0.00 0.00 0.00 44 1022.2
20260503070500 14 0.0 0.0 0.00 0.00 0.00 44 1022.1
20260503054418 11 0.0 0.0 0.00 0.00 0.00 41 1021.8
20260503053414 12 0.0 0.0 0.00 0.00 0.00 40 1021.7
20260503052410 13 0.0 0.0 0.00 0.00 0.00 38 1021.6
20260503051405 11 0.0 0.0 0.00 0.00 0.00 39 1021.7
20260503050401 10 0.0 0.0 0.00 0.00 0.00 39 1021.7
20260503045357 10 0.0 0.0 0.00 0.00 0.00 39 1021.7
20260503044353 10 0.0 0.0 0.00 0.00 0.00 42 1021.8
20260503043349 10 0.0 0.0 0.00 0.00 0.00 40 1021.8
20260503042336 9 0.0 0.0 0.00 0.00 0.00 40 1021.7
20260503041332 10 0.0 0.0 0.00 0.00 0.00 40 1021.7
20260503040328 10 0.0 0.0 0.00 0.00 0.00 40 1021.7
20260503035324 10 0.0 0.0 0.00 0.00 0.00 39 1021.7
20260503034320 9 0.0 0.0 0.00 0.00 0.00 40 1021.7
20260503033316 10 0.0 0.0 0.00 0.00 0.00 39 1021.7
20260503032310 10 0.0 0.0 0.00 0.00 0.00 39 1021.7
20260503031258 10 0.0 0.0 0.00 0.00 0.00 39 1021.8
20260503030254 10 0.0 0.0 0.00 0.00 0.00 37 1021.9
20260503025250 10 0.0 0.0 0.00 0.00 0.00 37 1021.8
20260503024245 10 0.0 0.0 0.00 0.00 0.00 37 1021.9
20260503023241 11 0.0 0.0 0.00 0.00 0.00 35 1022.0
20260503022237 11 0.0 0.0 0.00 0.00 0.00 34 1022.0
20260503021233 11 0.0 0.0 0.00 0.00 0.00 34 1022.0
20260503020229 11 0.0 0.0 0.00 0.00 0.00 35 1022.0
20260503015225 11 0.0 0.0 0.00 0.00 0.00 35 1022.1
20260503014221 10 0.0 0.0 0.00 0.00 0.00 40 1022.1
20260503013217 10 0.0 0.0 0.00 0.00 0.00 40 1022.2
20260503012213 11 0.0 0.0 0.00 0.00 0.00 40 1022.2
20260503011208 11 0.0 0.0 0.00 0.00 0.00 40 1022.3
20260503010204 11 0.0 0.0 0.00 0.00 0.00 38 1022.3
20260503005200 11 0.0 0.0 0.00 0.00 0.00 36 1022.4
20260503004156 11 0.0 0.0 0.00 0.00 0.00 33 1022.4
20260503003152 11 0.0 0.0 0.00 0.00 0.00 37 1022.6
20260503002148 11 0.0 0.0 0.00 0.00 0.00 39 1022.8
20260503001144 11 0.0 0.0 0.00 0.00 0.00 41 1022.9
20260503000140 11 0.0 0.0 0.00 0.00 0.00 39 1022.9
20260502235136 11 0.0 0.0 0.00 0.00 0.00 38 1022.9
20260502234131 11 0.0 0.0 0.00 0.00 0.00 38 1023.0
20260502233127 11 0.0 0.0 0.00 0.00 0.00 38 1023.0
20260502232123 11 0.0 0.0 0.00 0.00 0.00 37 1023.2
20260502231109 11 0.0 0.0 0.00 0.00 0.00 38 1023.3
20260502230105 11 0.0 0.0 0.00 0.00 0.00 38 1023.3
20260502225101 11 0.0 0.0 0.00 0.00 0.00 38 1023.3
20260502224057 11 0.0 0.0 0.00 0.00 0.00 37 1023.4
20260502223052 11 0.0 0.0 0.00 0.00 0.00 37 1023.4
20260502222048 11 0.0 0.0 0.00 0.00 0.00 37 1023.4
20260502221044 11 0.0 0.0 0.00 0.00 0.00 37 1023.5
20260502220040 11 0.0 0.0 0.00 0.00 0.00 36 1023.4
20260502215036 12 0.0 0.0 0.00 0.00 0.00 36 1023.5
20260502214032 12 0.0 0.0 0.00 0.00 0.00 35 1023.6
20260502213028 12 0.0 0.0 0.00 0.00 0.00 35 1023.6
20260502212024 12 0.0 0.0 0.00 0.00 0.00 33 1023.5
20260502211020 13 0.0 0.0 0.00 0.00 0.00 31 1023.6